Lakeville, MN

4:43 AM CST on December 09, 2016 (GMT -0600)
Airlake

Weather History for KLVN - November, 2012

Change the Weather History Date:

Monday, November 19, 2012

  Actual Average Record
Temperature  
Mean Temperature 44 °F -  
Max Temperature 57 °F 39 °F 59 °F (1953)
Min Temperature 30 °F 24 °F 0 °F (1978)
Degree Days  
Heating Degree Days 22    
Moisture  
Dew Point 36 °F    
Average Humidity 69    
Maximum Humidity 100    
Minimum Humidity 48    
Precipitation  
Precipitation 0.00 in - - ()
Sea Level Pressure  
Sea Level Pressure 30.04 in    
Wind  
Wind Speed 6 mph (South)    
Max Wind Speed 12 mph    
Max Gust Speed -    
Visibility 9 miles    
Events      
Averages and records for this station are not official NWS values.
T = Trace of Precipitation, MM = Missing Value Source: NWS Daily Summary

Daily Weather History Graph

Daily Weather History Graph

Search for Another Location

Airport or City:

Trip Planner

Search our weather history database for the weather conditions in past years. The results will help you decide how hot, cold, wet, or windy it might be!

Date:

Astronomy

Nov. 19, 2012 Rise Set
Actual Time 7:15 AM CST 4:40 PM CST
Civil Twilight 6:43 AM CST 5:12 PM CST
Nautical Twilight 6:07 AM CST 5:48 PM CST
Astronomical Twilight 5:33 AM CST 6:23 PM CST
Moon 12:13 PM CST (11/19) 11:15 PM CST (11/19)
Length of Visible Light 10h 29m
Length of Day
9h 25m
Waxing Crescent, 41% of the Moon is Illuminated
Nov 19
Waxing Crescent
Nov 20
First Quarter
Nov 28
Full
Dec 6
Last Quarter
Dec 13
New

Hourly Weather History & Observations

Time (CST) Temp. Windchill Dew Point Humidity Pressure Visibility Wind Dir Wind Speed Gust Speed Precip Events Conditions
12:13 AM 44.6 °F 40.7 °F 33.8 °F 66% 30.10 in 10.0 mi SSE 6.9 mph - N/A   Unknown
12:34 AM 46.4 °F 42.9 °F 33.8 °F 62% 30.09 in 10.0 mi SSE 6.9 mph - N/A   Unknown
12:53 AM 46.4 °F 42.9 °F 33.8 °F 62% 30.08 in 10.0 mi South 6.9 mph - N/A   Mostly Cloudy
1:14 AM 46.4 °F 41.9 °F 33.8 °F 62% 30.08 in 10.0 mi South 9.2 mph - N/A   Mostly Cloudy
1:34 AM 46.4 °F 42.4 °F 35.6 °F 66% 30.08 in 10.0 mi SSE 8.1 mph - N/A   Overcast
1:53 AM 46.4 °F 42.9 °F 35.6 °F 66% 30.08 in 10.0 mi SSE 6.9 mph - N/A   Overcast
2:14 AM 46.4 °F 42.9 °F 33.8 °F 62% 30.08 in 10.0 mi SSE 6.9 mph - N/A   Mostly Cloudy
2:34 AM 46.4 °F 44.3 °F 35.6 °F 66% 30.08 in 10.0 mi SSE 4.6 mph - N/A   Overcast
2:53 AM 46.4 °F 43.5 °F 35.6 °F 66% 30.08 in 10.0 mi South 5.8 mph - N/A   Unknown
3:14 AM 46.4 °F 43.5 °F 33.8 °F 62% 30.07 in 10.0 mi SSE 5.8 mph - N/A   Overcast
3:34 AM 46.4 °F 42.4 °F 33.8 °F 62% 30.06 in 10.0 mi SSE 8.1 mph - N/A   Overcast
3:53 AM 48.2 °F - 33.8 °F 58% 30.06 in 10.0 mi South 8.1 mph - N/A   Overcast
4:14 AM 48.2 °F - 33.8 °F 58% 30.05 in 10.0 mi South 6.9 mph - N/A   Overcast
4:34 AM 48.2 °F - 33.8 °F 58% 30.05 in 10.0 mi South 8.1 mph - N/A   Overcast
4:53 AM 48.2 °F - 35.6 °F 62% 30.05 in 10.0 mi South 9.2 mph - N/A   Overcast
5:14 AM 48.2 °F - 35.6 °F 62% 30.05 in 10.0 mi South 9.2 mph - N/A   Mostly Cloudy
5:34 AM 48.2 °F - 35.6 °F 62% 30.05 in 10.0 mi South 10.4 mph - N/A   Overcast
5:53 AM 48.2 °F - 35.6 °F 62% 30.05 in 10.0 mi South 8.1 mph - N/A   Overcast
6:14 AM 46.4 °F 42.4 °F 35.6 °F 66% 30.05 in 10.0 mi South 8.1 mph - N/A   Overcast
6:34 AM 46.4 °F 42.4 °F 37.4 °F 71% 30.04 in 10.0 mi South 8.1 mph - N/A   Mostly Cloudy
6:53 AM 44.6 °F 41.4 °F 37.4 °F 76% 30.04 in 10.0 mi South 5.8 mph - N/A   Unknown
7:33 AM 44.6 °F 42.2 °F 37.4 °F 76% 30.04 in 10.0 mi SSE 4.6 mph - N/A   Unknown
7:54 AM 44.6 °F 41.4 °F 37.4 °F 76% 30.05 in 10.0 mi South 5.8 mph - N/A   Scattered Clouds
8:13 AM 46.4 °F 45.2 °F 37.4 °F 71% 30.05 in 10.0 mi SSE 3.5 mph - N/A   Unknown
8:33 AM 46.4 °F 44.3 °F 39.2 °F 76% 30.05 in 10.0 mi South 4.6 mph - N/A   Overcast
8:54 AM 46.4 °F 44.3 °F 39.2 °F 76% 30.05 in 10.0 mi SSE 4.6 mph - N/A   Overcast
9:13 AM 48.2 °F - 39.2 °F 71% 30.04 in 10.0 mi South 5.8 mph - N/A   Unknown
9:33 AM 50.0 °F - 39.2 °F 66% 30.04 in 10.0 mi South 8.1 mph - N/A   Clear
9:54 AM 51.8 °F - 39.2 °F 62% 30.04 in 10.0 mi South 10.4 mph - N/A   Clear
10:13 AM 51.8 °F - 39.2 °F 62% 30.05 in 10.0 mi South 9.2 mph - N/A   Scattered Clouds
10:33 AM 51.8 °F - 37.4 °F 58% 30.04 in 10.0 mi South 11.5 mph - N/A   Mostly Cloudy
10:54 AM 51.8 °F - 37.4 °F 58% 30.04 in 7.0 mi South 9.2 mph - N/A   Mostly Cloudy
11:13 AM 53.6 °F - 37.4 °F 54% 30.03 in 10.0 mi South 10.4 mph - N/A   Scattered Clouds
11:33 AM 55.4 °F - 37.4 °F 51% 30.03 in 10.0 mi SSW 6.9 mph - N/A   Scattered Clouds
11:54 AM 55.4 °F - 37.4 °F 51% 30.02 in 10.0 mi SSW 8.1 mph - N/A   Mostly Cloudy
12:14 PM 55.4 °F - 39.2 °F 54% 30.02 in 10.0 mi South 8.1 mph - N/A   Scattered Clouds
12:33 PM 55.4 °F - 39.2 °F 54% 30.02 in 10.0 mi SSW 5.8 mph - N/A   Clear
12:54 PM 55.4 °F - 37.4 °F 51% 30.02 in 7.0 mi SW 5.8 mph - N/A   Clear
1:13 PM 57.2 °F - 39.2 °F 51% 30.01 in 7.0 mi SW 4.6 mph - N/A   Clear
1:34 PM 57.2 °F - 39.2 °F 51% 30.01 in 10.0 mi South 6.9 mph - N/A   Clear
1:54 PM 57.2 °F - 39.2 °F 51% 30.01 in 10.0 mi South 4.6 mph - N/A   Clear
2:13 PM 57.2 °F - 37.4 °F 48% 30.01 in 10.0 mi Calm Calm - N/A   Clear
2:34 PM 57.2 °F - 39.2 °F 51% 30.01 in 10.0 mi SSW 3.5 mph - N/A   Clear
2:54 PM 57.2 °F - 39.2 °F 51% 30.01 in 10.0 mi SSW 5.8 mph - N/A   Clear
3:13 PM 55.4 °F - 37.4 °F 51% 30.01 in 10.0 mi Calm Calm - N/A   Clear
3:34 PM 55.4 °F - 39.2 °F 54% 30.01 in 7.0 mi South 5.8 mph - N/A   Clear
3:53 PM 55.4 °F - 39.2 °F 54% 30.01 in 7.0 mi South 3.5 mph - N/A   Clear
4:13 PM 53.6 °F - 39.2 °F 58% 30.02 in 5.0 mi Calm Calm - N/A   Haze
4:34 PM 53.6 °F - 37.4 °F 54% 30.02 in 10.0 mi Calm Calm - N/A   Clear
4:53 PM 51.8 °F - 37.4 °F 58% 30.02 in 4.0 mi Calm Calm - N/A   Haze
5:14 PM 48.2 °F - 37.4 °F 66% 30.02 in 10.0 mi Calm Calm - N/A   Clear
5:34 PM 44.6 °F - 37.4 °F 76% 30.03 in 7.0 mi Calm Calm - N/A   Clear
5:53 PM 44.6 °F - 37.4 °F 76% 30.03 in 10.0 mi Calm Calm - N/A   Clear
6:14 PM 46.4 °F - 37.4 °F 71% 30.03 in 7.0 mi Calm Calm - N/A   Clear
6:34 PM 39.2 °F - 35.6 °F 87% 30.04 in 10.0 mi Calm Calm - N/A   Clear
6:53 PM 39.2 °F - 33.8 °F 81% 30.04 in 10.0 mi Calm Calm - N/A   Clear
7:14 PM 37.4 °F - 33.8 °F 87% 30.05 in 10.0 mi Calm Calm - N/A   Clear
7:34 PM 41.0 °F - 35.6 °F 81% 30.04 in 10.0 mi Calm Calm - N/A   Clear
7:53 PM 35.6 °F - 32.0 °F 87% 30.05 in 10.0 mi Calm Calm - N/A   Clear
8:14 PM 37.4 °F - 33.8 °F 87% 30.04 in 10.0 mi Calm Calm - N/A   Clear
8:34 PM 35.6 °F - 33.8 °F 93% 30.05 in 10.0 mi Calm Calm - N/A   Clear
9:14 PM 35.6 °F - 33.8 °F 93% 30.05 in 7.0 mi Calm Calm - N/A   Clear
9:34 PM 33.8 °F - 33.8 °F 100% 30.04 in 7.0 mi Calm Calm - N/A   Clear
9:53 PM 33.8 °F - 32.0 °F 93% 30.04 in 7.0 mi Calm Calm - N/A   Clear
10:14 PM 33.8 °F - 33.8 °F 100% 30.04 in 7.0 mi Calm Calm - N/A   Clear
10:34 PM 30.2 °F - 30.2 °F 100% 30.05 in 7.0 mi Calm Calm - N/A   Clear
10:53 PM 33.8 °F 30.8 °F 33.8 °F 100% 30.05 in 7.0 mi West 3.5 mph - N/A   Clear
11:14 PM 32.0 °F - 30.2 °F 93% 30.05 in 7.0 mi Calm Calm - N/A   Clear
11:34 PM 33.8 °F 30.8 °F 32.0 °F 93% 30.06 in 7.0 mi West 3.5 mph - N/A   Clear
11:53 PM 30.2 °F - 30.2 °F 100% 30.07 in 7.0 mi Calm Calm - N/A   Clear